CAPE
2064 3066 2669 2707 2543 3147 3212 3104 2301 1705 1628 1293 1316 1268 1348 1161 803 754 823 718 595 1166 1362 1159 1119 1154 903 918 726 1012 1601 1564 1729 1908 2522 2941 2829 2503 2374 3098 3273 3146 3070 2948 3131 3279 3718 3377 3144 2788 2590 2389 2071 1680 1278 2288 2388 2335 2140 2155 2048 2146 2604 3208 3313 3163 3114 2167 1605 1634 1478 2086 1622 2977 3098 2719 3131 3553 3131 3590 4836 5498 5260 4437 4041
1386 2706 2844 2518 2250 2777 2752 2974 2692 2027 1554 1376 1390 1212 1488 1498 1112 780 448 856 724 792 1535 1540 1128 1034 850 753 848 702 1413 1548 1474 1582 2137 2500 2733 2010 2207 2440 2815 3143 2998 2821 2708 2828 3526 3543 3564 3208 3093 3020 2212 1809 1621 1286 1520 1892 1959 1859 1799 1767 2119 2554 3030 3333 2992 3019 2124 2064 1958 1810 2502 2926 3329 3234 3294 3165 3558 3496 3135 3769 3771 4818 4233
1359 2838 2948 2747 2687 2458 2432 2699 2835 2337 1735 1218 1192 982 1202 1570 1409 964 519 563 911 876 951 1238 1255 1274 1152 967 1143 1002 1458 1566 1551 1374 1622 1996 2324 1671 1133 1674 2047 2344 2500 2711 2651 2660 2599 2882 3051 3058 2717 2622 2664 2353 1745 1454 1425 1428 1212 1000 934 1120 1376 2377 3283 3454 3299 3285 3300 2986 2270 2340 3096 2879 2949 3033 3372 3790 4000 4005 3109 2542 2881 2939 4258
1445 2563 2681 2843 2814 2508 2593 2133 2118 2174 1472 1170 909 807 463 1014 1383 1091 758 365 496 955 823 881 1048 1570 1388 1176 1298 1416 1433 1799 1850 1255 1313 1592 1946 2238 1914 1579 1778 2008 1991 1986 2066 2095 2173 2418 2373 2272 2200 2287 2449 2467 1960 1503 1537 1592 1601 1697 1802 1791 1869 1818 2566 3624 3866 3743 3732 3236 3132 3157 3340 3158 3093 2884 2849 3054 3234 3359 3149 3048 3667 2267 3750
1861 2349 2578 2617 2541 3080 2555 2103 1713 1790 1384 999 822 671 359 197 616 821 691 429 171 597 924 866 1074 1359 1374 1378 1337 1555 1471 1741 2015 1349 952 1189 1755 1761 1746 1754 1726 1765 1812 1889 1851 1873 2044 2072 2126 2153 2170 2103 2289 2436 2027 1900 1762 1510 1687 1829 2032 2010 2174 2266 2630 3035 3764 4166 4190 4292 3862 3807 3571 3469 3422 3464 3110 2592 3485 4428 4095 3401 4048 3082 2598
1569 1755 2150 2283 2456 2451 2581 2474 1702 1420 1479 982 677 645 374 179 138 528 615 475 277 139 654 730 592 1023 1470 1568 1384 1617 1842 1758 2014 1680 871 830 1094 1335 1290 1372 1377 1564 1572 1298 1422 1631 1600 1868 1973 1976 1954 1874 1949 1963 2300 2175 2018 1873 1941 1993 1987 2194 2661 2778 3128 3602 3906 4256 4323 3948 3550 3214 3718 3850 3475 3240 3286 2768 2426 2358 3203 4136 4565 4394 2963
1625 1075 2188 2265 2529 2073 2093 2157 1826 1431 1457 1357 1006 744 573 360 154 202 469 462 294 118 148 683 592 619 1286 1603 1433 1556 1878 1779 2128 2016 1481 790 712 1156 908 907 1080 1257 1510 1334 1122 1054 1097 1169 1500 1828 1973 1894 1732 1818 2024 2122 2071 1915 2253 2469 2552 2350 2358 2852 3222 3543 3731 3849 3950 3957 3727 3287 3281 3640 3736 3841 4271 3918 3296 2951 3209 3474 4244 4652 4688
1537 1714 1231 1817 2388 2708 2509 2418 2041 1603 1534 1993 1599 858 504 439 413 229 369 482 323 155 41 128 608 621 822 1343 1416 1219 1689 1744 1768 1962 1925 1119 503 590 860 876 650 809 770 843 861 650 598 762 866 1146 1498 1911 1963 1950 1922 1845 2120 2128 1948 2091 2599 2662 2709 2306 2229 2566 3267 3319 3411 3393 3032 3669 3667 3377 2766 2677 3049 3923 4416 4278 4282 4372 4059 4163 4255
1710 1737 1670 1730 2357 2746 2686 2421 2577 2123 2123 2146 1987 1376 946 891 806 689 503 439 423 294 100 2 144 560 723 1024 1261 889 787 1407 1405 1621 1789 1687 715 204 304 717 789 668 674 639 709 748 544 351 392 518 1371 2883 2232 2604 2258 2582 2334 2284 2460 2478 2785 2826 3090 2997 2636 2758 2830 2941 3221 3303 3208 3165 3291 3511 3185 3060 3139 3181 3045 2983 3214 3017 2952 3062 4134
1854 1781 1554 1915 1854 1992 2570 2342 2404 2436 2377 2553 2871 2513 1746 1153 689 703 608 524 712 890 547 146 4 175 617 976 1126 977 504 602 1369 1073 1294 1420 1221 243 53 409 681 636 761 534 324 294 428 476 261 702 1267 2837 3072 2822 2719 2942 3037 2601 3555 2666 3250 3195 3257 3316 3348 2837 2727 2950 2888 2801 2702 2562 2416 2832 2823 2610 2653 3065 2996 3161 3446 3539 3480 3378 3778
1362 2245 1864 1632 1709 1927 2259 2546 2795 2957 3094 2646 2820 3068 2876 2299 1992 1839 1438 1068 1326 1706 1297 506 147 16 168 610 947 906 636 255 502 1013 1126 1227 1104 1075 493 491 836 799 575 1089 963 303 95 135 260 554 1800 2816 4176 2937 2639 2425 2659 2490 2200 2136 2908 4515 3528 3213 3270 3044 2680 2606 2720 2824 2599 2268 1994 1613 1340 1059 978 874 948 1746 2339 2878 3285 3400 3431
2301 2076 1723 1540 1716 1567 2206 2476 2795 2646 2592 2958 2986 3217 3175 2942 2659 2342 1581 1317 2202 1333 1174 1347 1225 536 242 270 536 772 759 405 2 362 1025 1154 1313 1490 820 619 278 445 853 694 715 753 446 106 26 53 184 678 1152 4175 3046 2384 2329 2273 2119 1888 1558 1436 2720 4019 4342 3441 3040 2741 2609 2498 2146 1998 1957 1971 1606 1196 1479 1370 1790 1935 2832 2728 2931 3142 3231
1621 2023 1912 1947 1933 1582 1604 2269 3027 2999 2516 2781 2935 3086 3306 3282 2856 2437 2034 2031 1778 2382 2440 1872 1982 1699 924 806 470 466 585 626 589 37 463 917 979 996 497 417 391 376 499 990 991 969 1017 795 182 1 0 832 2153 1447 3879 3702 2230 2209 2067 1830 1597 1368 1228 1597 2527 3517 4205 3384 2896 2812 2555 2561 2256 2028 1701 1569 1537 1628 1952 1510 1734 1930 2626 2756 2739
1111 1184 1784 1818 1903 2326 1853 1294 2086 2953 3045 2751 2405 3010 3258 3356 3042 2538 2315 2310 2337 2256 2170 2345 2242 2511 2096 1639 1420 750 762 708 826 837 722 640 744 830 933 440 288 324 583 777 1137 1385 1697 1477 982 508 125 790 2355 1947 2501 3648 4179 3117 2642 2726 2753 2439 1684 1276 1251 1588 2114 2776 2889 2484 2548 2725 3256 2771 2654 2553 2432 2633 2092 1873 2056 1623 2230 2901 2719
662 660 1170 1551 1900 2018 2231 1557 1273 1766 2919 2656 2590 3133 3000 3329 3240 2868 2350 2304 2443 2545 2411 2384 2403 2391 2234 2084 1914 1390 994 631 756 967 983 897 756 615 1189 980 761 579 520 768 1677 1438 1844 1895 1762 1425 1646 1410 612 1785 1994 2705 4166 4709 3847 3080 2691 2534 2660 2359 2047 2077 2199 2225 2697 2779 2814 3020 3326 2888 2911 3448 3130 3568 3354 3197 3309 3284 3251 3277 3041
619 782 628 1201 1405 1348 1274 1720 2190 1806 2750 2768 2730 2523 3117 3251 3354 3308 2562 1924 2033 2269 2666 2452 2386 2364 2295 2213 2014 1880 1407 849 794 828 962 971 906 786 1237 1547 1406 1142 982 1101 1153 1696 1896 2189 2634 2354 2217 2760 2013 1349 2273 3075 3358 4021 4587 4364 3332 2568 1983 2228 1825 2160 2621 2765 2742 2069 2005 2665 2542 3235 4636 4386 2905 3590 3706 2909 2657 3252 3538 3509 3124
339 481 748 738 690 785 852 1010 1407 1848 1812 1320 1632 1547 2109 2852 2895 3050 2777 2172 1743 1758 2346 2478 2630 2443 2406 2436 2343 2205 1918 1650 1039 884 860 840 872 815 1410 1522 1640 1566 1460 1476 1458 1492 1608 2122 3150 2635 2711 2844 2430 1708 1740 2569 3143 3206 3408 3497 3278 2798 2509 2001 2146 1993 1974 1959 2042 2200 1832 1636 1665 1822 2134 2330 3323 3738 4022 3215 2557 1502 1866 2075 1612
177 248 349 604 703 703 627 790 1004 1077 1383 1502 1424 1635 1732 1537 1703 2303 2236 2103 1560 1441 1106 2028 2229 2478 2520 2379 2151 2412 2289 2071 1521 1252 1009 834 809 1208 1670 1625 1620 1762 1784 1817 1759 1714 1814 1948 2612 2571 2714 2948 2468 2244 1804 2162 3258 2828 2896 2814 2721 2484 2050 1244 2171 2135 2133 1961 1936 1979 2006 1978 1848 1834 1996 2105 2230 2541 3300 2708 1575 827 860 1316 1046
0 22 173 317 486 619 677 668 772 845 936 1276 1426 1412 1412 1372 1784 1869 1956 1917 2096 1926 1936 1977 1842 2002 2199 2104 2001 2061 2252 2114 1785 1584 1362 1146 965 1429 1807 1641 1619 1780 1870 1988 2006 1928 1947 2172 2851 2778 2855 3028 2650 2369 2166 2430 2913 2923 2700 2456 2105 2038 2024 2338 3276 3313 3102 2331 2299 2041 1985 2006 1975 2493 2924 2232 2195 2148 2941 2803 1689 1344 1344 1354 1494
0 0 1 142 264 458 618 706 710 726 719 954 1326 1312 1371 1445 1686 1946 1702 2030 1999 1930 1793 1853 2296 2195 1858 1737 1912 1945 2068 2437 2088 1748 1626 1442 1223 1401 1926 1907 1714 1840 2035 2089 2308 2291 2193 2186 2571 1760 2095 2474 2625 2418 2261 2181 2800 2879 2728 2538 2230 1838 1630 2418 3048 2005 4281 3803 3835 3633 3328 3251 3146 3035 3072 2966 2610 2044 2166 2362 2298 2059 2041 1940 1526
1 4 2 3 120 304 420 472 580 686 806 1024 1170 1069 1344 1657 1615 1442 1516 1779 1774 1928 1830 1706 1439 2175 2023 2074 2182 1969 2096 2117 4166 1857 1854 1811 1644 1404 1783 1934 1921 2101 2307 2377 2322 2394 2482 2460 2413 2084 1688 1851 2250 2483 2331 2213 2327 3151 3106 2966 2724 3110 2567 2494 3011 2783 3314 4180 4289 4046 4162 3994 3655 3383 3173 2922 2630 2568 2414 1775 2064 2168 2153 1833 1292
0 0 0 0 16 119 216 43 353 504 750 858 1545 1568 1637 1939 1641 1556 1433 1304 1349 1670 2022 2219 2005 2169 2526 1981 2058 2466 2711 2371 2644 2360 2069 1947 1919 1840 1640 1925 2104 2241 2444 2713 2658 2533 2584 2791 2935 2713 2102 1825 1676 1978 2185 2201 2192 2335 3563 2812 2693 2326 3914 3543 3233 3298 2726 2430 2136 2607 2830 2558 2531 2534 2193 1940 2290 2133 2186 2437 2023 2144 2169 1780 1576
0 0 0 0 1 15 43 80 191 368 604 806 937 1331 1493 1634 1970 1865 1714 1452 1364 1497 1982 2474 2459 2255 2581 2710 2349 2785 3201 2544 2098 2129 1928 1926 1922 1947 1867 1764 1567 2590 2244 2636 2886 2789 2828 2950 3055 3019 2380 2146 1993 1747 1698 1888 2019 2062 2239 2420 2426 2359 2279 2772 2984 2791 2814 2399 2594 2698 2473 2133 1989 1930 1851 1688 1409 1457 1335 1870 2917 2495 2202 1875 1942
0 0 0 0 0 2 19 43 42 182 361 637 956 1190 1371 1463 1731 2102 1842 1775 1888 1702 1626 1769 1983 2221 2431 2543 2628 2351 2497 2928 2506 2141 2062 2096 2242 2012 1970 1929 1906 1722 2044 2131 2652 2898 2907 2979 3336 2856 2340 2340 2264 2137 1956 1690 1620 1722 1901 2011 2016 1965 2000 2339 2511 2599 2856 2683 2823 2693 2533 2367 2287 1785 1582 1621 1458 1900 1975 1619 2493 3137 2828 2584 2545
0 0 0 0 0 0 0 6 60 74 191 252 550 709 953 858 960 1128 1281 1348 1552 1713 1945 1803 2117 2183 2041 1926 2294 2692 2983 3255 2533 2299 1941 2066 2288 2343 2286 1973 1917 1844 1720 1717 2207 2224 2230 2031 2171 2170 2431 2315 2312 2208 2180 2124 1925 1702 1523 1530 1605 1586 1812 2052 1984 2197 2417 2516 2543 2661 2607 2717 2595 2382 2333 2494 2453 2640 3155 2129 1334 1422 2266 3271 3184
0 0 0 0 0 0 0 0 32 70 52 147 218 430 718 776 800 918 1019 1057 1399 1495 1459 1298 1595 1961 2200 2314 2228 2351 2575 2414 2680 2643 1917 1948 1668 1743 2241 2340 2220 2160 1968 1741 1662 1749 1980 2252 1980 2102 2351 2479 2377 2357 2252 2120 2057 1924 1769 1569 1375 1280 1608 1808 1952 2042 2240 2285 2338 2200 2290 2357 2289 2467 3166 3400 3268 2852 2328 2318 2440 2118 1811 2190 3532
0 0 0 0 0 0 0 0 0 3 21 45 91 100 358 626 1102 786 898 846 1109 1416 1440 1423 1552 1762 1895 1892 2153 2284 2771 2494 2022 1975 2294 1898 1956 1757 1497 1825 2341 2392 2443 2296 2055 2094 2165 2254 2190 1984 1905 2035 2272 2315 2257 2118 1966 1800 1752 1655 1485 1311 1388 1682 1894 2128 2247 2313 2219 2282 2169 2198 2147 2726 3307 3396 3228 3197 2798 3416 2980 2709 2536 2475 3054
0 0 0 1 0 0 0 0 0 0 4 12 22 77 92 140 282 783 873 874 860 1121 1352 1446 1623 1755 1715 1738 1877 2192 2472 2292 1780 1578 1588 1947 1890 2073 2115 2039 1814 1723 2144 2084 2061 2233 2095 2530 2535 2473 2216 2007 1907 1906 1946 1895 1834 1745 1650 1582 1481 1347 1200 1194 1490 1973 2463 2501 2386 2353 2317 2638 2412 2172 2279 2546 2738 2795 3185 3199 3123 3136 2784 2836 3076
0 0 1 1 1 0 0 0 0 0 0 0 2 20 39 21 11 136 564 704 619 673 967 948 1089 1418 1505 1566 1677 1736 1790 1927 2123 2252 2112 1856 1765 1782 1875 1957 2004 2150 2307 2214 2144 1931 1732 2063 2363 2565 2557 2371 2289 2180 1974 1895 2247 1880 1619 1473 1381 1320 1405 1440 1487 1762 2073 2414 2602 2689 2499 2449 2395 2353 2298 2380 3232 3060 3524 3959 4098 3717 3977 3428 2646
1 1 1 1 2 0 0 0 0 0 0 0 0 0 0 0 22 80 301 491 518 544 639 656 803 956 1290 1532 1608 1604 1646 1914 1918 2006 2066 2031 1924 1826 1692 1772 1858 1958 2033 1922 1914 2043 2086 1584 1892 2478 2772 2697 2505 2242 2078 2038 1785 1858 1831 1496 1367 1646 1570 1556 1588 1652 1831 2055 2337 2495 2658 2585 2622 2524 2533 2476 3079 3019 3260 3173 3866 4139 4102 3689 3315
4 1 0 2 2 1 4 2 0 0 0 0 0 0 0 4 1 0 0 238 358 363 448 536 572 644 756 974 1288 1525 1630 1716 1826 1957 1990 2153 2252 1970 1834 1890 2013 2051 1997 2136 2200 2121 1934 1927 2249 2663 2598 2740 2596 2484 2224 2010 1564 1822 1559 1414 1861 1615 1492 1691 1764 1622 1516 1835 1995 2264 2439 2645 2609 2582 2504 2676 2763 2840 2876 3284 3534 3970 3720 3732 3603
4 4 2 0 1 3 6 7 2 0 0 0 0 0 0 0 0 4 0 0 0 257 122 338 356 360 348 437 584 736 1029 1362 1665 1811 2050 2243 2379 2345 2237 2052 2005 2037 2256 2331 2073 2036 1970 1949 2223 2517 2594 2677 2698 2580 2438 2598 1839 1450 1785 1333 1738 1756 1644 1884 1927 1979 1866 1694 1931 2055 2260 2438 2556 2566 2411 2366 2676 2641 2565 2519 2687 2694 3055 3252 3314
12 4 4 4 2 2 4 10 9 3 1 0 0 0 0 0 0 0 110 8 0 65 324 300 159 18 144 194 395 551 724 1000 1324 1743 2152 2502 2605 2648 2631 2525 2180 2097 2111 2146 2132 2067 2050 2157 2104 2321 2412 2562 2725 2763 2625 2560 2546 1954 1452 1808 1887 1792 1825 2227 1742 2312 2039 2089 2040 2058 2155 2217 2253 2421 2372 2422 2406 2261 2212 2205 2130 2185 2542 2924 3016
12 9 6 8 10 7 10 7 4 3 1 2 2 0 0 0 0 0 0 0 34 62 2 137 117 0 0 139 469 672 786 891 1133 1594 2170 2588 2751 2791 2724 2651 2561 2302 2227 2281 2253 2142 2038 2090 2290 2257 2162 2523 2530 2739 2848 2974 2920 2478 2172 1821 1694 1668 2463 3306 3438 2447 2174 1963 2179 1915 1894 2150 2462 2406 2323 2316 2317 2327 2322 2164 2145 2154 2158 2468 2878
16 18 8 8 7 7 7 9 2 3 3 1 0 0 0 0 0 0 0 0 2 6 5 402 240 0 56 28 16 195 456 599 869 1291 1825 2302 2625 2811 2735 2579 2524 2403 2204 2152 2219 2145 2055 2146 2224 2270 2127 2378 2520 2829 2969 3110 2969 2868 2872 2676 2374 2056 2048 2194 2361 2630 2348 2456 2486 2505 2405 2340 2564 2443 2586 2570 2408 2336 2312 2355 2254 2079 2251 2573 2931
12 8 6 5 5 6 8 9 8 6 7 4 1 0 0 0 0 0 0 0 0 2 6 7 18 24 0 0 306 666 928 1017 1132 1307 1485 1710 2224 2767 2723 2677 2491 2340 2221 2192 2144 2107 2114 2196 2343 2497 2474 2458 2617 2624 2512 2506 2634 2904 2937 2579 2727 2658 2565 2339 1786 2663 3238 2910 2483 2638 2578 2745 2510 2433 2516 2124 2495 2521 2334 2097 2164 2306 2322 2515 2956
16 6 8 4 8 8 11 16 12 8 2 1 1 1 0 0 0 0 0 0 0 0 0 6 14 19 17 123 21 230 577 848 992 1160 1333 1532 1870 2512 2677 2788 2730 2652 2440 2257 2154 2094 2082 2110 2162 2369 2456 2594 2708 2862 2843 2829 2814 3224 3150 3134 2864 2904 2558 2809 2737 2733 3078 2688 2800 3036 3066 2874 2948 2856 2671 2482 2416 2460 2458 2397 2570 2524 2525 2279 2331
15 8 5 6 6 7 10 10 8 3 2 3 6 6 3 0 0 0 0 0 0 0 0 1 5 8 8 110 45 0 0 12 450 615 750 864 989 1198 2020 1846 1894 2348 2694 2621 2357 2236 2127 2222 2316 2370 2679 2672 3189 3489 3114 2659 2995 2731 2771 3339 3741 3710 2652 2423 2388 3176 3582 3013 2707 2965 3233 3133 3066 2913 2435 2706 2720 2739 2484 2060 2173 2318 2182 1939 2074
15 5 1 0 1 6 5 5 5 5 4 5 3 2 0 0 0 0 0 0 0 0 0 1 2 7 10 10 0 0 0 0 0 449 752 893 1022 1250 1371 1513 1720 1871 2182 2407 2136 2068 2235 2298 2166 2143 2284 2612 2702 2992 2933 3056 2886 2834 2923 2953 3390 2751 3018 3137 3178 3592 3234 3039 2856 2832 2826 2930 3052 3218 2488 2088 1855 2034 2033 2238 2069 1825 1615 2153 2097
8 14 5 3 6 7 11 12 9 7 8 9 6 6 4 1 0 0 0 0 0 0 0 0 0 0 4 0 0 0 0 0 0 0 197 821 1038 1156 1258 1433 1479 1488 1650 1978 2068 2030 2048 2024 1989 2002 1997 2168 2202 2334 2627 2638 2600 2706 3402 3407 3074 2878 2623 2831 3092 3150 2846 2863 2783 2672 2525 2969 2948 2129 1909 1532 1614 1706 1559 1778 2223 2224 2097 1954 2184
7 6 5 3 1 2 4 5 5 6 11 13 11 9 8 6 5 5 2 0 0 0 0 0 0 0 0 0 0 0 0 0 0 0 0 0 502 1076 1166 1110 1115 1260 1476 1660 1785 1956 2236 2351 2138 2119 1952 1970 1899 1965 2080 2046 2420 2630 2550 2490 2667 2696 2799 2766 2780 2821 2818 3000 2863 2956 3050 3456 2572 2189 2016 1924 1800 1672 2209 1702 1727 2123 2390 2069 1957
9 6 5 4 2 4 6 6 7 12 11 11 12 8 8 10 10 10 5 3 1 0 0 0 0 0 1 0 0 0 0 0 0 1 1 0 0 16 573 752 848 1042 1202 1373 1606 1806 1956 2112 2334 2306 2284 2280 2230 2265 2432 2365 2554 2737 2828 2855 2809 2829 2825 2866 2923 2853 3062 2804 3085 3228 3249 2652 2370 2416 2119 1910 1691 1834 1795 1768 1644 1467 1622 1915 1698
14 11 8 7 8 8 7 5 8 13 16 11 9 11 10 11 9 8 8 6 4 2 0 0 0 0 1 0 0 0 0 1 0 1 0 0 0 0 0 39 403 835 1038 1113 1208 1360 1545 1802 2007 2274 2495 2558 2597 2625 2615 2599 2621 2582 2522 2492 2564 2650 2732 2741 2722 2760 2716 2846 3069 2765 3654 2576 2457 2452 2283 2163 1866 1907 1917 1888 1826 1647 1387 1326 1297
11 11 10 11 11 8 8 8 10 10 12 10 14 10 7 8 8 9 8 7 4 2 1 1 0 1 1 0 1 0 1 0 0 0 0 0 0 0 0 0 0 46 794 1025 1159 1200 1223 1370 1761 1982 2100 2278 2422 2563 2668 2752 2793 2734 2599 2514 2445 2362 2371 2375 2270 2218 2199 2269 2318 2280 2066 2093 2042 1886 2063 2079 2001 1824 1843 1786 1684 1613 1581 1454 1538
8 11 12 13 12 11 9 11 15 10 11 13 13 10 10 8 7 5 6 4 0 1 1 0 0 0 0 0 0 1 0 0 0 0 0 0 0 0 0 0 0 1 165 620 896 1016 1115 1134 1123 1182 1317 1617 1806 1963 2253 2434 2566 2618 2572 2445 2337 2287 2306 2290 2227 2202 2142 2049 1910 1884 2004 1983 1837 1796 1930 2081 2247 1766 1426 1533 1566 1574 1674 1574 1486
11 14 15 13 10 10 11 12 14 14 10 12 10 8 6 3 2 2 2 2 1 0 1 1 0 0 0 0 0 0 0 1 0 0 0 0 0 0 0 0 0 0 1 0 153 511 739 980 1073 1114 1131 1168 1169 1250 1358 1482 1535 1552 1554 1563 1688 1870 2012 2061 2004 1995 1967 1948 1892 1827 1732 1650 1606 1783 1656 1987 2005 1614 1436 1432 1419 1392 1520 1306 613
12 13 12 13 12 12 14 16 15 13 11 9 8 8 0 0 0 0 1 2 0 1 2 1 1 0 0 1 0 0 0 0 0 0 0 1 1 0 0 1 1 1 1 1 2 1 275 505 709 890 985 1024 903 762 749 761 763 798 850 954 1120 1275 1362 1463 1559 1614 1715 1813 1877 1891 1914 1934 1957 1949 1958 1761 1247 1416 1349 1197 1383 1258 1153 804 777
10 12 12 14 12 11 11 12 13 14 11 7 7 4 0 0 0 1 1 0 0 0 0 1 0 0 0 0 1 1 0 1 1 1 0 0 0 0 0 1 1 1 1 1 1 55 78 180 238 320 388 427 456 479 491 525 546 593 645 689 728 733 743 791 855 943 1048 1182 1281 1339 1412 1465 1533 1589 1641 1408 1356 1185 1207 1213 1194 1037 780 737 605
13 12 11 14 14 14 11 11 11 6 4 5 3 1 1 1 0 0 0 0 1 1 1 0 0 1 2 2 2 1 1 2 1 1 0 0 0 0 1 2 2 1 1 1 1 1 103 165 190 212 246 304 334 344 381 389 396 389 388 368 336 359 413 451 501 566 630 597 642 705 785 894 1010 1076 1191 1310 1458 1554 1604 1520 1056 912 879 662 416
17 19 16 15 14 14 12 6 6 4 5 3 2 2 2 1 1 1 1 1 1 1 1 0 0 1 0 2 3 2 2 1 1 1 0 0 0 0 0 1 2 1 1 1 0 0 0 12 148 181 198 231 271 324 374 414 410 398 351 321 283 258 258 288 314 368 410 473 536 607 678 734 804 854 910 1093 1304 1486 1595 1525 1380 1245 894 364 302
18 17 19 19 14 15 12 6 6 7 4 6 3 2 0 0 2 3 2 2 2 1 0 1 1 0 1 1 3 3 3 2 2 2 0 0 0 0 2 1 0 0 0 0 0 0 0 4 132 136 152 174 194 213 232 248 240 212 178 158 37 0 148 154 0 0 0 186 296 405 488 567 637 740 874 1003 1151 1289 1366 1363 1322 626 493 383 300
Wind_Speed
14 14 13 12 13 14 14 15 12 11 9 9 9 9 9 7 7 6 8 6 7 7 5 6 7 7 6 6 5 6 5 3 3 4 4 3 2 1 2 2 0 2 3 4 5 4 4 5 5 4 5 4 4 3 3 2 2 2 2 3 3 1 2 2 1 3 4 7 8 7 10 11 10 9 7 8 7 8 7 6 7 7 8 13 14
14 16 15 15 13 15 15 16 14 13 10 11 10 10 10 10 9 8 7 8 6 6 7 6 6 7 6 7 6 6 6 4 2 3 3 3 1 1 1 3 3 4 5 4 5 6 4 4 4 4 3 4 4 3 3 2 1 0 1 0 1 1 1 1 1 3 4 4 4 8 8 3 4 5 7 6 7 6 5 5 2 5 4 12 14
16 19 17 17 16 16 16 17 16 13 11 11 10 11 11 11 10 8 8 9 8 5 6 5 6 6 6 6 7 5 5 5 2 1 3 2 1 2 2 2 3 5 4 5 6 5 5 4 4 4 4 3 3 4 5 3 3 2 2 1 1 1 1 1 1 2 3 5 5 4 4 6 5 6 5 4 5 3 3 2 5 5 6 4 15
20 19 17 17 17 17 17 17 15 14 13 13 11 12 13 13 12 10 9 9 9 8 5 5 6 7 6 6 7 6 6 5 3 2 1 1 1 2 3 4 4 4 6 6 6 6 6 5 5 5 5 5 4 5 5 5 4 4 5 5 5 5 6 4 1 2 3 4 4 4 5 5 4 4 3 4 2 4 4 5 4 4 7 3 14
22 20 18 17 18 18 17 16 16 15 14 14 12 13 13 14 14 11 11 9 8 11 9 6 6 8 7 7 8 8 7 6 4 2 1 1 2 2 2 2 4 6 7 7 7 6 6 6 5 4 5 5 5 4 4 5 5 5 4 4 4 4 3 3 3 2 2 3 3 2 3 2 2 2 2 2 4 3 5 5 4 5 8 4 10
21 23 17 17 19 17 17 17 16 15 15 15 14 14 15 14 15 14 12 11 9 10 11 9 7 8 8 8 8 9 8 7 5 3 2 0 2 2 2 2 2 4 5 6 6 6 6 6 6 5 4 4 4 3 2 3 3 3 4 4 3 2 2 2 2 2 3 3 3 3 1 1 1 3 4 4 4 5 5 6 6 7 9 9 11
20 16 22 21 21 17 18 17 16 17 17 16 16 16 15 15 14 15 15 13 12 10 11 11 10 10 10 9 9 10 10 9 7 5 2 2 2 2 2 2 2 4 4 5 5 4 4 5 5 5 4 5 4 3 1 1 1 2 1 1 2 2 1 0 1 0 1 1 1 1 1 1 3 3 6 7 7 7 5 6 8 9 12 14 12
22 21 25 22 20 22 22 20 17 18 20 20 18 16 16 15 16 17 18 16 13 12 nan 13 13 12 12 11 10 10 11 10 10 8 5 1 2 3 3 3 2 2 3 3 4 5 4 4 3 2 2 2 3 3 2 1 1 1 0 1 1 1 1 1 2 3 3 3 3 2 3 5 6 5 5 7 8 9 9 10 10 12 12 13 14
24 24 25 25 27 27 26 23 22 22 20 21 20 18 17 17 18 19 18 17 16 15 14 nan 14 15 14 13 12 12 12 12 12 11 9 7 4 2 2 2 2 3 3 3 3 4 5 5 4 3 4 5 3 2 2 6 4 2 3 2 2 3 3 3 3 4 4 3 3 4 5 6 7 7 7 8 8 8 9 10 10 11 11 12 14
38 35 28 29 30 29 32 30 28 24 22 22 23 21 18 18 18 17 18 17 18 18 17 16 nan 16 17 17 15 14 13 13 15 16 14 11 9 6 nan 5 4 4 4 3 3 2 2 3 3 2 3 6 8 7 5 5 7 4 5 5 4 4 4 4 4 4 5 4 5 5 6 7 8 10 10 9 9 10 9 10 10 11 11 11 12
34 32 33 31 29 28 30 28 28 25 26 24 24 23 22 21 22 21 20 19 19 20 18 16 15 nan 17 18 18 16 14 14 19 21 19 14 11 10 7 7 7 5 3 4 4 2 nan 1 2 2 2 6 8 10 9 7 6 2 2 3 5 5 4 5 5 4 5 5 6 6 5 6 7 6 6 6 6 5 6 8 9 10 11 11 11
28 32 35 33 34 31 28 28 28 27 26 26 26 25 24 23 22 21 19 18 22 19 17 17 17 15 16 17 18 17 15 15 nan 24 23 20 15 11 10 8 7 6 6 4 4 4 2 1 nan nan 2 3 5 9 9 10 9 8 6 5 4 4 4 4 5 5 7 6 6 6 5 6 7 9 9 8 8 8 7 8 8 9 10 12 13
28 34 35 31 33 34 27 23 25 25 24 26 27 27 26 24 22 21 20 21 22 22 20 18 18 17 15 16 15 16 15 17 21 nan 25 23 20 15 10 9 8 7 7 7 6 6 6 4 2 nan nan 9 10 9 11 10 10 11 10 9 7 7 7 8 7 7 6 7 7 7 9 8 8 9 11 10 11 10 10 9 10 10 11 12 14
27 32 37 36 32 32 28 22 20 20 22 24 26 26 26 25 24 24 24 24 23 21 20 19 19 19 17 16 15 14 13 18 24 24 25 24 22 19 13 10 9 8 8 8 8 7 7 6 7 6 5 8 11 12 12 12 13 12 10 10 9 10 11 11 11 12 10 9 9 9 11 12 11 11 12 13 13 13 13 12 12 12 13 13 12
29 29 34 37 34 34 31 22 17 17 20 21 24 25 26 27 26 27 26 26 25 24 22 21 21 19 18 17 16 14 13 16 24 24 25 25 23 22 16 12 11 10 9 9 10 9 9 9 8 8 11 10 10 14 13 13 13 14 14 13 12 12 14 16 16 16 16 15 14 13 13 13 13 13 14 15 15 16 16 14 14 14 13 13 13
33 32 33 36 37 35 33 30 26 22 21 23 24 25 28 28 29 29 28 27 27 27 26 24 22 20 19 18 17 15 14 16 23 22 25 26 26 23 18 15 13 12 12 12 12 13 12 12 12 12 13 13 13 15 17 16 13 12 13 15 15 15 15 18 21 23 22 21 19 18 17 17 17 16 15 15 17 19 19 19 18 19 17 16 16
37 36 34 34 36 36 34 32 32 33 33 29 31 30 30 29 29 31 30 29 27 27 27 26 27 24 22 21 19 17 17 19 24 23 24 27 29 23 20 17 14 13 13 14 15 14 14 14 14 14 14 15 18 21 21 21 16 14 13 14 15 16 17 19 25 27 28 26 25 23 21 20 19 19 18 20 20 18 18 17 18 18 16 16 16
39 38 37 37 35 35 35 34 34 37 40 40 34 33 32 32 33 35 36 34 30 26 25 26 27 27 25 23 21 21 19 21 26 24 26 31 29 25 22 18 16 14 14 15 16 17 17 15 16 16 16 18 22 26 26 26 21 17 16 16 17 18 19 20 26 27 31 32 30 28 25 23 20 20 20 20 23 26 22 20 20 19 17 17 17
nan nan 40 40 39 38 37 37 39 41 40 40 44 38 35 35 34 39 36 31 29 33 32 29 27 26 26 24 26 22 21 23 29 26 27 31 29 27 24 20 16 14 15 16 17 18 19 20 19 19 19 19 24 29 29 29 24 22 19 18 18 19 22 26 26 29 29 27 26 26 24 22 22 22 22 22 24 26 24 22 22 22 20 19 18
nan nan nan 43 43 42 41 41 43 46 42 41 43 38 34 33 32 35 34 31 27 26 27 27 25 26 24 25 27 26 24 25 30 28 29 29 28 28 26 23 17 16 16 17 19 18 19 20 23 23 21 22 24 29 30 31 27 24 22 20 20 20 23 25 27 26 30 31 28 29 27 26 24 23 22 22 25 27 25 24 24 24 24 22 22
nan nan nan nan 46 46 46 45 46 46 44 43 42 36 33 33 33 31 31 31 29 27 26 26 25 26 28 27 27 27 28 28 33 32 29 30 28 27 28 23 20 20 19 20 19 19 20 21 20 26 25 24 25 29 28 29 28 26 24 21 21 24 27 25 25 27 26 29 30 28 27 26 25 24 25 25 24 26 27 27 26 27 26 25 23
nan nan nan nan nan 48 50 nan 48 46 46 45 42 36 34 33 32 32 33 34 32 28 27 29 28 28 31 31 32 33 33 34 33 38 32 30 29 27 27 24 23 23 22 21 21 20 20 22 22 26 29 27 26 28 28 28 27 25 24 23 23 24 27 26 25 26 27 26 25 26 26 25 25 25 25 25 26 26 26 27 29 28 27 26 24
nan nan nan nan nan nan nan nan 52 49 48 47 41 40 40 37 35 34 33 33 33 30 28 30 29 29 30 31 33 36 37 37 40 45 36 31 31 27 24 24 26 26 23 22 22 22 25 23 23 27 32 29 28 28 27 28 28 25 24 25 25 26 28 26 25 25 25 25 26 26 26 26 26 26 26 26 26 26 25 26 29 29 27 26 25
nan nan nan nan nan nan nan nan nan 52 49 46 42 42 42 41 38 37 35 35 35 32 30 29 28 27 30 32 35 37 36 37 40 42 43 36 29 28 25 23 25 27 24 22 23 23 25 25 25 28 33 31 30 29 28 29 27 26 25 25 26 27 27 25 25 24 23 23 23 23 24 25 26 26 27 27 27 29 28 26 28 31 28 26 26
nan nan nan nan nan nan nan nan nan nan 54 50 48 47 44 42 42 44 45 40 35 33 34 33 33 31 31 31 33 35 36 38 38 42 45 36 28 25 24 25 23 24 25 23 25 25 25 23 23 30 34 33 31 30 28 28 26 26 27 26 25 26 25 23 22 22 22 21 20 21 21 22 23 24 26 27 28 29 30 29 27 27 29 29 25
nan nan nan nan nan nan nan nan nan nan nan 55 53 51 49 46 44 47 48 43 40 37 35 35 34 32 31 32 32 32 35 35 35 39 45 42 37 31 27 26 24 22 23 24 23 25 28 35 42 42 38 34 35 34 31 28 24 21 21 22 23 22 21 21 21 20 19 19 19 19 19 20 21 22 24 25 26 26 27 28 29 30 29 30 30
nan nan nan nan nan nan nan nan nan nan nan nan nan 56 55 52 50 51 50 45 42 41 39 35 34 34 32 32 32 33 35 36 33 34 40 45 43 41 37 33 31 32 32 30 26 27 28 29 31 33 35 34 29 29 25 25 23 19 18 19 18 18 19 19 19 20 20 20 19 19 19 20 20 22 24 25 25 25 26 26 26 27 30 31 31
nan nan nan nan nan nan nan nan nan nan nan nan nan nan nan 58 56 56 53 50 48 44 37 33 36 39 39 35 31 32 35 38 37 36 41 44 46 44 38 34 32 34 33 31 32 34 29 29 30 30 29 29 25 21 18 18 19 20 18 17 17 16 16 17 18 18 20 22 22 22 21 21 22 22 23 23 24 25 27 26 25 26 27 29 29
nan nan nan nan nan nan nan nan nan nan nan nan nan nan nan nan nan 58 55 53 51 47 42 41 38 36 35 36 35 33 34 36 38 41 40 44 42 41 37 34 32 31 30 32 35 35 37 33 26 21 16 12 11 10 11 12 14 16 16 16 15 17 18 19 19 20 22 23 24 25 24 24 24 24 25 24 25 25 28 26 25 25 26 27 26
nan nan nan nan nan nan nan nan nan nan nan nan nan nan nan nan nan nan 55 54 49 45 45 41 39 38 35 33 36 36 35 37 44 43 37 32 34 37 36 31 27 29 32 32 34 33 27 20 16 13 9 8 5 5 6 8 8 10 12 15 16 17 19 20 21 21 23 23 24 26 26 25 25 26 26 26 27 27 28 28 26 26 26 26 25
nan nan nan nan nan nan nan nan nan nan nan nan nan nan nan nan nan nan nan 47 46 43 40 38 35 33 33 33 36 33 29 27 30 31 30 30 32 36 37 33 29 29 31 40 39 31 26 21 15 10 7 8 7 6 9 9 9 12 13 15 17 18 19 20 21 22 23 24 24 25 26 26 25 26 26 27 28 29 29 31 30 28 27 27 26
nan nan nan nan nan nan nan nan nan nan nan nan nan nan nan nan nan nan nan nan nan 39 41 42 40 36 33 32 35 39 34 30 30 32 29 26 27 34 38 37 34 32 35 36 31 29 26 21 15 11 9 8 9 9 9 10 11 13 16 16 18 20 20 19 22 23 23 23 24 25 26 26 25 25 25 26 28 27 29 30 30 29 29 29 28
nan nan nan nan nan nan nan nan nan nan nan nan nan nan nan nan nan nan 65 nan nan nan 38 41 41 nan 34 33 31 32 33 34 36 37 36 31 29 31 39 38 37 41 49 37 27 24 23 19 16 15 14 10 12 12 12 13 13 15 18 20 19 20 22 24 26 24 23 23 24 23 24 25 26 25 26 25 26 25 27 28 28 30 31 30 30
nan nan nan nan nan nan nan nan nan nan nan nan nan nan nan nan nan nan nan nan nan nan nan 37 38 nan nan 36 35 34 33 33 34 35 34 33 33 36 40 42 45 47 41 32 25 21 20 20 20 18 13 11 13 15 16 16 18 18 18 20 21 21 24 27 29 27 24 24 23 22 22 23 25 24 24 24 25 25 26 27 28 29 29 31 31
nan nan nan nan nan nan nan nan nan nan nan nan nan nan nan nan nan nan nan nan nan nan nan 52 45 nan nan nan nan 38 34 35 39 42 43 41 43 42 45 46 43 42 36 28 23 20 19 20 22 19 17 15 16 19 19 21 23 22 22 22 21 21 22 24 23 24 24 22 22 21 21 21 23 24 24 24 26 26 26 26 27 29 30 31 32
nan nan nan nan nan nan nan nan nan nan nan nan nan nan nan nan nan nan nan nan nan nan nan nan nan nan nan nan 38 43 52 50 45 43 45 50 46 50 47 41 38 35 33 30 27 24 24 24 25 22 20 19 20 19 21 22 23 24 24 25 25 24 24 23 24 25 25 22 19 19 20 21 23 24 25 25 26 27 27 27 28 29 31 31 34
nan nan nan nan nan nan nan nan nan nan nan nan nan nan nan nan nan nan nan nan nan nan nan nan nan nan nan 54 nan 61 58 55 52 49 46 49 49 46 43 45 45 45 41 38 38 36 33 29 28 25 25 26 23 23 25 24 26 27 29 28 27 25 24 25 25 26 26 23 22 21 22 22 24 26 27 26 28 30 31 30 30 32 34 34 37
nan nan nan nan nan nan nan nan nan nan nan nan nan nan nan nan nan nan nan nan nan nan nan nan nan nan nan 59 nan nan nan nan 53 52 54 57 54 48 47 49 51 51 48 43 42 43 40 36 33 31 28 26 26 29 29 27 28 29 30 31 31 29 26 26 27 28 27 25 23 25 27 27 27 28 30 29 29 30 30 31 32 33 37 39 40
nan nan nan nan nan nan nan nan nan nan nan nan nan nan nan nan nan nan nan nan nan nan nan nan nan nan nan nan nan nan nan nan nan 56 55 54 53 53 51 51 53 53 48 40 36 37 39 37 37 37 34 31 29 31 33 33 32 31 32 32 33 32 31 30 29 30 29 27 26 26 28 30 32 34 38 38 33 32 31 33 35 37 39 44 46
nan nan nan nan nan nan nan nan nan nan nan nan nan nan nan nan nan nan nan nan nan nan nan nan nan nan nan nan nan nan nan nan nan nan 56 56 56 55 54 53 54 55 52 44 39 39 37 35 35 35 33 31 33 35 35 35 35 35 35 35 35 34 31 32 32 32 31 30 28 28 30 31 36 49 51 44 40 37 38 38 41 44 44 44 48
nan nan nan nan nan nan nan nan nan nan nan nan nan nan nan nan nan nan nan nan nan nan nan nan nan nan nan nan nan nan nan nan nan nan nan nan 59 61 63 63 63 61 59 56 53 51 50 46 40 36 37 37 36 35 35 35 35 35 35 35 34 34 34 33 35 35 32 31 31 31 32 40 53 51 40 40 42 41 44 47 45 45 48 47 51
nan nan nan nan nan nan nan nan nan nan nan nan nan nan nan nan nan nan nan nan nan nan nan nan nan nan nan nan nan nan nan nan nan nan nan nan nan nan 64 64 64 63 62 61 59 57 56 55 53 52 52 50 47 45 41 40 40 40 39 37 37 36 35 36 36 37 37 35 35 37 38 48 49 45 41 38 38 42 48 51 47 47 47 47 51
nan nan nan nan nan nan nan nan nan nan nan nan nan nan nan nan nan nan nan nan nan nan nan nan nan nan nan nan nan nan nan nan nan nan nan nan nan nan nan nan 64 63 62 60 59 58 57 56 55 55 54 53 52 50 48 46 45 44 45 46 46 46 44 40 39 39 38 39 40 39 44 52 45 42 42 41 40 41 45 47 47 49 48 48 51
nan nan nan nan nan nan nan nan nan nan nan nan nan nan nan nan nan nan nan nan nan nan nan nan nan nan nan nan nan nan nan nan nan nan nan nan nan nan nan nan nan nan 61 60 59 59 58 57 56 54 54 53 53 51 49 48 47 47 46 46 45 43 41 40 40 42 44 44 43 42 38 39 42 42 43 44 44 45 46 46 47 46 47 49 51
nan nan nan nan nan nan nan nan nan nan nan nan nan nan nan nan nan nan nan nan nan nan nan nan nan nan nan nan nan nan nan nan nan nan nan nan nan nan nan nan nan nan 61 61 61 60 59 58 57 55 54 53 53 52 50 49 47 47 47 45 42 39 38 38 37 37 37 37 38 40 40 39 38 39 40 42 47 50 47 46 48 52 51 48 46
nan nan nan nan nan nan nan nan nan nan nan nan nan nan nan nan nan nan nan nan nan nan nan nan nan nan nan nan nan nan nan nan nan nan nan nan nan nan nan nan nan nan nan nan 62 62 60 58 57 55 54 54 53 52 51 50 48 46 45 44 41 39 38 37 36 35 34 36 37 38 38 38 37 38 38 40 43 48 48 49 53 53 52 53 52
nan nan nan nan nan nan nan nan nan nan nan nan nan nan nan nan nan nan nan nan nan nan nan nan nan nan nan nan nan nan nan nan nan nan nan nan nan nan nan nan nan nan nan nan nan nan 60 58 57 56 56 56 55 53 51 50 47 45 44 43 41 39 38 38 37 37 37 38 39 39 39 37 37 35 35 38 39 42 47 48 50 52 54 56 58
nan nan nan nan nan nan nan nan nan nan nan nan nan nan nan nan nan nan nan nan nan nan nan nan nan nan nan nan nan nan nan nan nan nan nan nan nan nan nan nan nan nan nan nan nan nan nan 61 60 59 59 59 57 54 51 50 48 47 46 45 44 45 42 39 36 34 36 37 39 39 40 39 38 36 36 37 39 43 45 45 48 52 55 58 58
nan nan nan nan nan nan nan nan nan nan nan nan nan nan nan nan nan nan nan nan nan nan nan nan nan nan nan nan nan nan nan nan nan nan nan nan nan nan nan nan nan nan nan nan nan nan 63 64 64 64 63 60 58 54 52 51 50 49 47 47 45 42 38 37 37 35 31 32 35 38 38 40 40 41 45 46 46 49 50 52 54 58 58 55 53
nan nan nan nan nan nan nan nan nan nan nan nan nan nan nan nan nan nan nan nan nan nan nan nan nan nan nan nan nan nan nan nan nan nan nan nan nan nan nan nan nan nan nan nan nan nan nan nan 66 65 62 58 55 53 52 52 51 49 49 46 43 41 42 42 44 45 42 37 35 36 37 46 49 49 51 53 53 53 53 56 57 56 54 53 54
nan nan nan nan nan nan nan nan nan nan nan nan nan nan nan nan nan nan nan nan nan nan nan nan nan nan nan nan nan nan nan nan nan nan nan nan nan nan nan nan nan nan nan nan nan nan nan nan 64 61 57 53 51 51 52 52 51 49 48 48 nan nan 48 48 nan nan nan 46 46 46 49 51 50 51 51 51 54 55 56 57 55 54 53 53 54
Wind_Direction
260 256 248 239 238 246 252 252 257 244 238 238 235 239 241 232 246 248 255 251 268 286 295 294 303 311 320 313 324 305 306 302 280 280 292 295 267 201 184 235 159 150 149 140 146 169 187 193 196 194 181 183 192 188 193 242 258 262 208 212 210 214 304 309 178 178 181 186 185 183 205 196 172 200 187 199 225 249 223 239 296 329 315 301 298
259 257 249 245 242 245 247 251 252 246 246 244 242 243 242 243 238 241 255 261 254 278 297 310 312 314 325 322 318 323 310 306 317 285 280 286 290 249 198 172 163 145 140 123 124 145 168 171 177 167 172 151 152 147 156 160 314 347 311 154 201 156 193 188 166 173 183 208 193 211 204 213 163 215 213 204 222 228 226 234 240 286 232 297 301
250 253 250 246 248 245 242 249 248 250 251 242 249 251 251 248 247 243 246 256 266 256 283 312 307 317 321 313 314 320 307 323 324 280 265 276 246 161 197 253 171 141 119 113 114 118 122 139 140 149 155 137 122 123 124 122 129 123 96 58 63 87 60 337 204 157 171 197 211 208 229 228 217 219 219 230 241 269 263 243 250 253 253 282 302
230 246 251 249 254 249 247 246 253 253 250 242 247 250 253 256 252 249 251 247 266 271 271 294 302 302 320 319 319 321 318 323 332 339 285 257 210 175 160 192 202 169 142 124 108 109 111 119 125 138 144 136 126 121 112 109 112 122 120 137 150 146 154 152 160 167 172 171 201 199 209 205 213 217 251 260 248 256 235 230 222 266 280 220 294
226 244 249 255 254 251 256 253 253 257 255 249 251 251 252 258 259 257 256 253 258 272 277 280 285 301 315 324 325 329 334 336 340 5 334 244 180 172 192 196 190 184 170 155 136 126 116 110 114 121 138 133 129 121 122 113 119 114 98 97 99 97 98 104 112 112 125 126 155 185 194 194 192 217 255 247 255 259 302 294 256 244 278 235 276
231 238 245 246 245 255 251 252 257 259 259 256 257 254 253 256 262 264 260 261 261 267 281 285 288 298 306 315 324 325 329 331 333 351 26 45 197 174 196 197 205 200 189 173 159 148 136 123 115 107 106 106 112 137 161 129 131 113 114 124 114 99 90 94 114 124 123 125 143 156 195 142 267 278 257 269 276 270 264 279 297 301 293 288 272
229 234 251 244 252 248 253 254 251 254 255 254 253 255 256 260 262 266 267 263 267 270 279 287 284 293 299 308 318 318 323 329 319 329 349 158 191 213 170 207 210 209 203 186 180 174 157 148 139 122 110 104 103 105 122 84 142 130 222 155 135 154 139 304 312 31 18 80 87 40 193 287 295 299 301 302 302 294 292 296 301 299 302 302 302
217 229 240 245 246 250 246 245 242 245 249 249 249 250 253 256 260 259 264 270 268 273 nan 284 286 287 294 302 307 306 313 320 320 320 319 289 209 205 204 194 211 224 196 197 190 188 190 180 163 160 128 139 129 131 136 171 222 115 292 308 320 319 318 277 289 298 310 332 325 308 292 270 274 278 281 303 310 311 317 316 314 307 303 305 308
220 230 221 225 235 243 245 240 239 240 245 249 252 251 249 250 251 255 258 263 266 269 275 nan 284 290 292 295 301 304 310 314 311 315 314 312 283 251 233 234 223 210 209 190 207 213 198 194 196 187 246 293 343 255 180 220 226 264 277 277 298 317 312 297 290 292 288 294 292 291 305 313 313 313 319 315 317 317 309 305 299 297 307 315 315
221 224 216 215 224 232 234 234 237 233 241 246 251 254 253 252 253 255 257 262 260 260 263 270 nan 288 292 295 297 298 303 303 306 320 314 300 301 285 nan 257 253 250 244 217 185 201 211 207 191 188 234 296 315 322 322 259 238 210 240 289 310 307 308 318 315 312 315 319 330 332 336 336 335 336 338 336 334 333 332 324 318 311 307 307 307
218 223 231 230 222 220 228 231 234 235 238 243 248 250 252 253 253 255 259 259 260 258 260 269 276 nan 289 293 297 297 299 301 310 310 312 313 299 294 282 264 272 273 279 256 240 224 nan 219 198 185 245 269 290 317 318 330 329 325 137 188 231 258 313 339 329 322 321 332 334 341 343 334 333 329 326 325 333 330 314 299 297 291 300 305 305
234 232 227 228 226 221 226 231 235 235 237 241 246 248 249 253 254 259 264 269 265 267 268 267 265 274 277 287 295 296 297 302 nan 308 310 313 308 291 286 278 274 280 283 283 269 267 265 241 nan nan 284 300 293 294 311 328 336 347 2 15 26 6 317 285 290 313 327 330 331 330 323 321 314 317 326 324 308 301 293 292 298 300 305 307 303
233 236 234 230 239 237 222 227 235 237 238 243 246 248 249 251 255 259 266 265 267 269 269 272 273 271 272 275 284 291 292 301 301 nan 308 312 315 308 285 275 273 272 276 282 279 270 265 264 246 nan nan 316 312 315 301 306 319 341 349 356 355 348 346 355 342 316 297 315 323 321 322 319 329 325 321 316 308 318 309 311 306 308 306 305 309
233 234 229 228 229 238 238 220 224 238 241 242 246 250 252 254 255 255 256 259 262 267 274 273 270 271 271 270 269 274 281 288 300 303 305 308 312 303 292 290 279 269 268 276 279 282 275 263 266 265 265 260 279 304 300 304 301 305 310 311 316 333 339 349 347 348 336 320 317 321 317 319 323 318 316 314 318 317 315 315 312 310 309 316 316
234 230 224 224 229 230 233 240 233 232 241 241 245 248 250 251 252 251 252 256 259 260 263 267 267 269 273 271 268 271 274 282 293 302 303 305 307 298 291 290 281 279 276 272 265 274 277 278 272 269 266 269 272 288 296 297 298 300 309 319 322 321 323 328 329 320 319 321 330 332 327 324 327 330 320 315 320 316 314 318 316 315 318 324 329
230 230 225 224 226 230 227 224 226 230 237 240 239 239 241 243 244 245 243 247 250 252 254 256 260 265 266 267 266 266 265 279 285 295 299 299 300 284 286 285 277 271 274 274 271 267 269 270 272 275 271 273 281 290 290 288 295 303 305 307 311 315 320 323 326 322 322 322 325 331 330 330 328 326 318 312 312 315 319 322 319 320 330 334 333
226 227 226 225 225 225 225 223 222 223 232 236 232 231 229 232 236 239 238 237 241 250 251 253 252 253 256 260 260 256 256 265 280 287 290 292 283 276 280 280 277 273 266 271 272 274 277 277 274 275 282 282 286 293 294 297 295 301 301 305 303 306 310 308 319 324 324 328 331 334 336 334 329 318 314 306 305 298 299 304 310 314 322 329 329
224 226 227 226 225 225 222 222 222 224 225 234 238 243 243 238 235 236 231 228 230 235 242 245 249 250 250 252 258 256 252 259 275 280 284 286 286 279 276 278 278 274 270 270 268 270 276 289 286 282 280 281 290 294 298 294 295 300 300 302 304 308 304 302 295 308 323 327 329 330 330 329 324 315 305 304 304 299 307 311 313 310 317 323 326
nan nan 226 227 227 226 225 224 224 228 235 233 243 240 248 251 251 252 250 245 238 234 233 235 238 248 251 251 253 254 250 255 272 276 281 285 284 273 275 274 275 276 273 270 270 268 269 275 287 285 281 279 287 293 298 295 294 296 300 299 304 306 302 297 295 297 299 299 302 306 307 309 308 304 306 314 310 304 305 311 308 309 314 319 318
nan nan nan 227 229 229 228 227 229 231 240 244 250 247 244 247 249 257 264 268 269 271 263 261 255 248 249 256 254 256 253 248 263 276 278 280 287 272 270 272 273 276 272 266 267 269 269 268 276 289 288 283 282 290 298 302 298 297 296 301 303 303 296 292 297 297 301 305 307 308 310 309 309 307 307 306 305 306 308 310 311 311 314 318 320
nan nan nan nan 228 229 231 231 232 236 240 249 253 252 250 248 253 255 254 252 253 258 265 264 266 268 265 256 251 255 257 254 258 273 273 278 282 277 265 269 270 266 264 265 265 266 267 269 266 282 293 290 287 288 295 302 303 298 301 302 299 286 278 290 293 300 296 300 302 302 302 302 302 302 301 302 303 305 307 312 314 315 316 316 317
nan nan nan nan nan 231 232 nan 235 240 242 244 249 255 255 253 253 256 258 258 254 249 247 249 249 250 251 252 254 249 243 240 247 266 271 272 275 281 263 264 265 260 259 260 264 264 265 265 263 273 291 295 295 293 297 299 308 297 303 304 297 287 280 281 284 290 297 299 300 300 299 298 298 298 298 298 300 303 306 308 312 314 314 314 314
nan nan nan nan nan nan nan nan 237 240 243 246 246 248 251 251 250 253 252 252 255 254 249 248 250 248 246 247 248 249 251 249 243 245 253 263 269 271 271 262 258 257 254 256 259 260 262 261 261 272 287 295 298 298 298 302 297 296 307 302 297 290 282 286 287 290 290 292 293 294 293 294 293 294 295 295 296 296 299 302 305 308 308 310 313
nan nan nan nan nan nan nan nan nan 244 245 247 248 250 251 252 251 251 251 251 250 249 248 248 248 246 245 244 244 245 245 246 253 260 255 248 244 260 268 263 253 252 253 247 249 253 254 255 257 266 280 288 293 296 299 297 292 304 303 301 296 293 289 293 294 296 294 296 296 296 298 296 296 297 295 295 296 293 295 293 292 303 303 304 308
nan nan nan nan nan nan nan nan nan nan 247 246 246 249 251 251 252 251 247 244 247 249 248 248 247 246 244 242 240 242 244 245 244 253 264 265 256 247 247 253 251 247 245 245 239 240 243 246 253 265 274 279 287 291 291 298 305 302 303 304 301 290 294 298 302 303 307 307 306 303 302 300 298 296 294 294 295 295 295 297 300 299 302 303 300
nan nan nan nan nan nan nan nan nan nan nan 247 249 250 251 249 250 252 253 251 247 250 250 248 246 246 247 247 244 241 241 241 244 251 256 260 258 251 237 233 242 248 244 238 238 231 224 235 247 254 262 265 269 269 272 279 295 301 304 301 289 294 297 303 305 311 314 312 311 312 308 304 304 303 300 298 299 304 302 304 304 304 303 299 298
nan nan nan nan nan nan nan nan nan nan nan nan nan 250 252 252 253 254 255 257 256 252 251 250 251 250 247 247 247 245 246 242 239 239 249 254 260 269 267 249 232 222 225 230 234 236 236 235 242 249 254 271 276 281 284 284 286 282 276 280 286 292 297 302 308 312 314 312 313 313 312 312 308 306 307 308 311 311 310 309 310 310 307 306 304
nan nan nan nan nan nan nan nan nan nan nan nan nan nan nan 250 252 254 254 256 258 257 258 258 255 251 244 242 245 247 246 244 239 236 235 241 250 255 252 247 246 253 247 237 224 220 218 225 229 234 247 258 265 266 271 273 277 278 282 284 289 295 302 308 309 307 307 308 309 308 308 309 314 314 313 315 318 316 313 313 313 313 311 307 307
nan nan nan nan nan nan nan nan nan nan nan nan nan nan nan nan nan 248 249 254 257 255 253 256 260 260 256 249 243 238 240 238 232 231 235 246 256 254 246 240 247 255 264 266 246 229 219 212 210 224 233 244 257 265 267 271 277 286 296 297 297 301 302 304 308 308 306 305 307 307 310 310 313 311 312 313 311 312 308 310 313 314 311 311 314
nan nan nan nan nan nan nan nan nan nan nan nan nan nan nan nan nan nan 250 250 249 253 259 257 255 256 256 252 249 246 239 236 236 239 240 248 261 263 254 245 250 250 258 270 259 250 242 228 214 208 213 229 241 252 264 272 280 287 289 294 296 298 302 304 305 304 301 303 303 305 306 308 309 310 310 312 308 308 308 309 310 311 310 313 314
nan nan nan nan nan nan nan nan nan nan nan nan nan nan nan nan nan nan nan 255 254 253 256 259 257 259 261 250 249 250 241 227 219 222 234 246 251 251 254 250 248 251 248 244 247 250 243 232 212 197 195 217 232 247 261 269 277 282 287 291 295 297 297 299 299 297 299 301 302 303 304 306 307 305 308 308 308 308 306 305 306 309 311 311 311
nan nan nan nan nan nan nan nan nan nan nan nan nan nan nan nan nan nan nan nan nan 256 256 255 256 259 261 259 250 242 242 239 234 232 233 236 247 257 257 253 250 251 248 248 241 243 246 243 227 201 210 227 244 250 263 274 278 284 286 291 297 301 304 304 298 297 298 299 299 302 305 306 307 306 306 305 303 306 306 307 310 312 310 310 310
nan nan nan nan nan nan nan nan nan nan nan nan nan nan nan nan nan nan 240 nan nan nan 258 256 253 nan 250 253 258 255 243 234 232 236 238 237 241 253 259 255 255 256 257 253 244 240 244 250 246 231 227 232 249 260 269 272 272 276 285 290 294 298 305 305 302 301 302 300 301 305 307 308 308 307 306 306 305 308 306 307 308 307 309 311 309
nan nan nan nan nan nan nan nan nan nan nan nan nan nan nan nan nan nan nan nan nan nan nan 255 253 nan nan 247 248 252 249 242 241 245 245 242 244 248 255 254 253 263 269 261 254 238 238 245 247 243 240 249 259 266 272 278 280 283 288 292 298 301 297 298 303 307 307 306 307 309 309 310 307 311 311 309 308 306 307 307 308 309 309 310 312
nan nan nan nan nan nan nan nan nan nan nan nan nan nan nan nan nan nan nan nan nan nan nan 246 255 nan nan nan nan 247 250 243 242 244 244 243 248 257 260 258 257 257 258 253 251 245 244 249 252 251 250 254 266 273 276 278 281 284 288 291 295 301 304 302 306 308 307 306 306 307 305 305 307 307 306 307 308 309 311 311 312 311 309 308 308
nan nan nan nan nan nan nan nan nan nan nan nan nan nan nan nan nan nan nan nan nan nan nan nan nan nan nan nan 237 237 238 237 237 239 245 253 255 263 259 258 258 257 259 257 255 258 261 259 260 262 259 256 262 273 278 280 283 285 285 288 291 294 295 301 301 300 302 306 307 301 300 300 302 304 309 313 317 313 309 312 312 309 308 308 305
nan nan nan nan nan nan nan nan nan nan nan nan nan nan nan nan nan nan nan nan nan nan nan nan nan nan nan 247 nan 246 242 238 240 244 244 251 265 262 255 252 249 252 256 254 255 261 267 269 270 272 272 272 273 275 274 277 280 281 283 285 289 292 295 295 296 294 297 302 302 300 303 303 301 302 304 308 306 305 306 307 307 303 299 303 300
nan nan nan nan nan nan nan nan nan nan nan nan nan nan nan nan nan nan nan nan nan nan nan nan nan nan nan 245 nan nan nan nan 241 247 254 252 253 254 254 249 249 252 257 257 259 262 265 265 266 270 272 273 273 273 274 275 278 280 281 281 283 286 289 288 291 294 295 297 299 298 297 298 296 296 294 294 294 294 297 301 303 301 297 297 296
nan nan nan nan nan nan nan nan nan nan nan nan nan nan nan nan nan nan nan nan nan nan nan nan nan nan nan nan nan nan nan nan nan 244 243 243 249 255 256 254 254 256 257 255 253 255 252 251 253 253 255 260 268 271 271 270 272 274 276 279 280 282 285 289 293 294 296 299 298 296 294 292 290 285 273 267 269 275 284 293 296 295 294 293 295
nan nan nan nan nan nan nan nan nan nan nan nan nan nan nan nan nan nan nan nan nan nan nan nan nan nan nan nan nan nan nan nan nan nan 246 246 245 248 256 259 263 266 265 260 257 258 259 256 258 259 257 256 257 257 260 264 267 269 271 274 277 279 282 283 285 287 292 296 297 296 293 289 278 268 268 278 287 293 298 299 295 292 292 293 291
nan nan nan nan nan nan nan nan nan nan nan nan nan nan nan nan nan nan nan nan nan nan nan nan nan nan nan nan nan nan nan nan nan nan nan nan 247 247 247 247 247 249 253 254 254 255 256 260 263 264 265 260 256 258 259 260 264 266 265 265 270 274 275 277 278 280 284 290 293 291 287 281 272 277 290 300 303 300 290 282 284 288 290 293 293
nan nan nan nan nan nan nan nan nan nan nan nan nan nan nan nan nan nan nan nan nan nan nan nan nan nan nan nan nan nan nan nan nan nan nan nan nan nan 248 249 250 250 250 251 251 251 253 255 256 257 257 259 260 261 261 263 264 265 266 265 267 272 275 275 276 279 280 283 283 282 279 276 285 298 300 297 293 291 289 291 294 289 286 292 295
nan nan nan nan nan nan nan nan nan nan nan nan nan nan nan nan nan nan nan nan nan nan nan nan nan nan nan nan nan nan nan nan nan nan nan nan nan nan nan nan 249 249 249 249 250 250 251 252 254 255 255 256 258 259 260 260 259 260 260 259 260 262 264 266 268 271 275 277 277 277 277 282 290 291 294 297 297 295 292 294 298 299 300 298 295
nan nan nan nan nan nan nan nan nan nan nan nan nan nan nan nan nan nan nan nan nan nan nan nan nan nan nan nan nan nan nan nan nan nan nan nan nan nan nan nan nan nan 246 246 247 248 249 250 251 253 255 257 259 260 262 263 262 261 260 259 261 264 267 267 265 263 262 261 263 266 274 282 289 293 297 300 297 293 292 295 296 296 298 299 299
nan nan nan nan nan nan nan nan nan nan nan nan nan nan nan nan nan nan nan nan nan nan nan nan nan nan nan nan nan nan nan nan nan nan nan nan nan nan nan nan nan nan 245 246 246 246 247 249 250 252 254 257 259 260 261 262 262 262 263 262 262 264 265 264 263 262 261 261 263 264 269 279 287 291 294 295 295 296 298 297 297 296 295 294 298
nan nan nan nan nan nan nan nan nan nan nan nan nan nan nan nan nan nan nan nan nan nan nan nan nan nan nan nan nan nan nan nan nan nan nan nan nan nan nan nan nan nan nan nan 246 246 248 249 251 253 254 255 256 257 258 259 259 261 262 263 263 264 264 264 265 266 267 269 271 272 274 276 282 287 290 290 292 294 296 298 298 300 302 303 303
nan nan nan nan nan nan nan nan nan nan nan nan nan nan nan nan nan nan nan nan nan nan nan nan nan nan nan nan nan nan nan nan nan nan nan nan nan nan nan nan nan nan nan nan nan nan 248 249 250 251 252 253 253 253 254 255 256 258 259 260 258 257 260 262 264 267 271 276 279 280 281 284 285 284 288 288 289 292 294 297 301 305 305 305 305
nan nan nan nan nan nan nan nan nan nan nan nan nan nan nan nan nan nan nan nan nan nan nan nan nan nan nan nan nan nan nan nan nan nan nan nan nan nan nan nan nan nan nan nan nan nan nan 247 248 248 248 248 249 249 250 251 252 252 253 254 255 252 248 248 256 261 270 276 279 282 283 285 286 288 289 289 290 291 294 295 297 300 302 302 302
nan nan nan nan nan nan nan nan nan nan nan nan nan nan nan nan nan nan nan nan nan nan nan nan nan nan nan nan nan nan nan nan nan nan nan nan nan nan nan nan nan nan nan nan nan nan 245 246 246 246 246 246 247 247 248 248 249 249 250 252 250 244 248 251 258 259 257 265 273 278 282 282 284 286 283 285 286 285 286 287 289 291 293 296 297
nan nan nan nan nan nan nan nan nan nan nan nan nan nan nan nan nan nan nan nan nan nan nan nan nan nan nan nan nan nan nan nan nan nan nan nan nan nan nan nan nan nan nan nan nan nan nan nan 246 245 244 245 246 248 249 250 250 249 250 249 244 244 247 249 254 253 257 264 267 274 278 277 279 280 281 284 286 287 285 285 285 284 286 292 298
nan nan nan nan nan nan nan nan nan nan nan nan nan nan nan nan nan nan nan nan nan nan nan nan nan nan nan nan nan nan nan nan nan nan nan nan nan nan nan nan nan nan nan nan nan nan nan nan 246 245 245 245 247 248 250 251 251 249 246 242 nan nan 244 247 nan nan nan 256 260 261 266 267 270 273 276 278 281 281 283 283 281 279 282 288 292